Simultaneous Nadir Overpasses (SNOs) Predictions

Prediction of SNOs between GOES-16 and METOP-C Satellite Orbit:

Table of predicted SNOs for the next 14.0 days since TLE Epoch: 7/23/2022
Index Date Time (GOES-16) GOES-16 Lat,Lon METOP-C Lat,Lon Distance(km) Time Diff (sec)
1 07/24/2022 02:40:50 0.01, -75.20 -0.54, -77.78 293.68 80
2 07/25/2022 02:22:49 0.00, -75.20 0.52, -72.77 275.86 80
3 07/26/2022 14:39:01 -0.01, -75.22 0.49, -77.34 242.49 80
4 07/27/2022 14:21:02 -0.01, -75.22 -0.64, -72.35 327.16 80
5 07/29/2022 02:37:21 0.03, -75.22 -0.36, -76.95 196.93 80
6 07/30/2022 02:19:22 0.03, -75.23 0.77, -71.96 373.16 80
7 07/31/2022 14:38:14 -0.03, -75.26 0.24, -76.53 143.87 80
8 08/01/2022 14:14:55 -0.03, -75.27 -0.89, -71.53 426.66 80
9 08/03/2022 02:36:33 0.03, -75.28 -0.16, -76.12 95.72 80
10 08/04/2022 02:15:53 0.02, -75.30 0.97, -71.13 475.12 80
11 08/05/2022 14:34:46 -0.02, -75.33 0.04, -75.70 41.17 80
